OPS 7613 (P/L 6)

Satellite information

Favourite Embed

Satellite Type and Status

PAYLOADIN ORBIT

Key statistics

Satellite OPS 7613 (P/L 6) at a glance.

Uptime

20423

Days in orbit

Revolutions

≈ 14.0

Per day

Orbit

LEO

Low Earth Orbit

Inclination

70.0

Latest

Satellite identification and parameters

Extended collection of information and parameters for OPS 7613 (P/L 6).

Object identification

Identified? True

Debris? False

Object name: OPS 7613 (P/L 6)

International designator: 1969-082G

Object number (NORAD): 4295

Object ID (CCSDS): 4295

Country: UNITED STATES OF AMERICA (US)

Current information (Y/N): Y

RCS size: MEDIUM

Orbital parameters

Period: 103.186 minutes

Inclination: 70.0147 deg

SMA: 7287.416 km

Apoapsis: 923.816 km

Periapsis: 894.746 km

RAAN: 11.5853 deg

Eccentricy: 0.00199453

Argument of periapsis: 174.4355 deg

Mean anomaly: 185.6976 deg

Mean motion: 13.95540378 rev/day

Mean motion (dot): 0.00000065 rev/day2

B* drag term: 0.000086567698 1/REarth

Two-line elements (TLE)

Creation date: Aug. 30, 2025, 3:38 a.m.

Reference frame: TEME

Reference center: EARTH

Epoch: Aug. 29, 2025, 7:02 p.m. UTC

TLE line 0: 0 OPS 7613 (P/L 6)

TLE line 1: 1 04295U 69082G 25241.79354470 .00000065 00000-0 86568-4 0 9996

TLE line 2: 2 04295 70.0147 11.5853 0019945 174.4355 185.6976 13.95540378844835

Live tracking on map

Real-time ground track for satellite OPS 7613 (P/L 6).

In-orbit conjunctions

There are no conjunctions computed for OPS 7613 (P/L 6), at the moment. Check back to stay up to date, as we update our databases every day.

Go to all conjunctions

Associated space launch

Poppy was the follow-on ELINT system, which succeeded the Grab ELINT satellite system.

OPS 7613 (P/L 6) was lifted into orbit during the mission ‘Thorad SLV-2G Agena D | Poppy 8A,B,C,D’, on board a Thorad SLV-2G Agena D space rocket.

The launch took place on Sept. 30, 1969, 1:40 p.m. from Space Launch Complex 1W.

For more information about the launch, click the button.

Launch to space Thorad SLV-2G Agena D | Poppy 8A,B,C,D
Thorad SLV-2G Agena D | Poppy 8A,B,C,D

Agency: N/A

Status: Launch Successful

Launch date: Sept. 30, 1969, 1:40 p.m. UTC

Rocket: Thorad SLV-2G Agena D

Launch pad: Space Launch Complex 1W

Location: Vandenberg SFB, CA, USA

...

Latest news about this satellite

There are no fresh news available about this satellite. Check back as we update our databases every day.


Newsletter sign-up

Weekly statistics, charts and insights to help you stay on top of the space industry.